Location: Dehesa de la Cepeda
(40.6574°N, 4.3013°W)
Time: 04:32:42
(UTC+00:00)

Cosmos 2151 - Pass Details

Date: 05 July 2020
Orbit: 580 x 602 km, 82.5° (Epoch: 11 August)

Event Time Altitude Azimuth Distance (km) Brightness Sun altitude
Exits shadow 23:23:49 68° 25° (NNE) 649 3.2 -25.2°
Drops below altitude 10° 23:27:35 10° 9° (N) 1,941 6.5 -25.4°
Sets 23:29:48 0° 9° (N) 2,844 7.5 -25.5°
